Location: Kott?ru
(16.6209°N, 80.6208°E)
Time: 13:42:53
(UTC+00:00)

Palapa 6 Rocket - Pass Details

Date: 18 September 2020
Orbit: 484 x 1217 km, 22.7° (Epoch: 30 October)

Event Time Altitude Azimuth Distance (km) Brightness Sun altitude
Exits shadow 22:38:04 57° 256° (WSW) 1,316 4.2 -26.6°
Maximum altitude 22:39:33 71° 200° (SSW) 1,217 4.3 -26.2°
Drops below altitude 10° 22:47:33 10° 117° (ESE) 3,151 7.3 -24.3°
Sets 22:50:30 0° 115° (ESE) 4,116 8.1 -23.6°
